Погода в Карило

Аргентина     37°09′40″S   56°53′58″W
темп.,
°C
ветер,
м/с
пор.,
м/с
влажн.,
%
обл.,
%
осадки,
мм/ч
давл.,
гПа
погр.,
м
29 ноября, пн
пн2900:00+17ю91198100 0.3 1003540
03:00+16ю141896100 1.1 1000714
06:00+17ю131795100 3.3 1000793
09:00+17ю121693100 3.9 1002776
12:00+17ю131691100 0.1 1003813
15:00+17ююз131787100 0.5 1004961
18:00+17ююз121679100 0.0 1004882
21:00+16ююз9148517 0.0 1006634
30 ноября, вт
вт3000:00+14юз611871 0.0 1007390
03:00+12юз612900 0.0 1007377
06:00+12юз611870 0.0 1009434
09:00+18ю910630 0.0 1010911
12:00+19ююв88575 0.0 1012838
15:00+19ююв88565 0.0 1012758
18:00+17юв786943 0.0 1013625
21:00+15вюв710680 0.0 1014389
1 декабря, ср
ср100:00+14вюв68645 0.0 1015343
03:00+14в5767100 0.0 1014284
06:00+14в346873 0.0 1017276
09:00+17в5455100 0.0 1017723
12:00+19в655225 0.0 1017794
15:00+19всв775594 0.0 1017740
18:00+18св996060 0.0 1016642
21:00+15св69775 0.0 1016348
2 декабря, чт
чт200:00+15ссв57814 0.0 1017311
03:00+14ссв58840 0.0 1016310
06:00+14с5987100 0.0 1016306
09:00+21ссв56565 0.0 1017671
12:00+24св65460 0.0 10161208
15:00+24всв1110523 0.0 1014903
18:00+21св11125825 0.0 1014543
21:00+17св712790 0.0 1015397
3 декабря, пт
пт300:00+17ссв612840 0.0 1016355
03:00+16с4789100 0.0 1015233
06:00+16ссз018892 0.0 101768
09:00+20вюв0170100 0.0 1018662
12:00+22вюв6465100 0.0 1018766
15:00+19ююв7776100 0.0 1018577
18:00+16ююв9987100 0.1 1019511
21:00+16юв7887100 0.2 1020483